SCP
-0 -0 -0 -0 -0 0 0 -0 0 0 0 -0 -0 -0 -0 -0 -0 -0 -0 -0 -0 -0 -0 -0 -0 -0 -0 -0 -0 -0 -0 -0 -0 -0 -0 -0 -0 -0 -0 -0 -0 -0 -0
0 -0 0 -0 -0 -0 -0 -0 -0 -0 0 0 0 0 -0 -0 -0 -0 -0 -0 -0 -0 -0 -0 -0 -0 -0 -0 -0 -0 -0 -0 -0 -0 -0 -0 -0 -0 -0 -0 -0 -0 -0
-0 0 -0 -0 -0 -0 -0 -0 -0 -0 -0 -0 -0 -0 -0 -0 -0 -0 -0 -0 -0 -0 -0 -0 -0 -0 -0 -0 -0 -0 -0 -0 -0 -0 -0 0 0 -0 -0 -0 -0 -0 -0
-0 0 -0 -0 -0 -0 -0 -0 -0 -0 -0 -0 -0 -0 -0 -0 -0 -0 -0 -0 -0 -0 -0 -0 -0 -0 -0 -0 -0 -0 -0 -0 -0 -0 0 0 0 -0 -0 -0 -0 -0 -0
0 0 0 -0 -0 -0 -0 0 -0 -0 -0 -0 -0 -0 -0 -0 -0 -0 -0 -0 -0 -0 -0 -0 -0 -0 -0 -0 -0 -0 -0 -0 -0 0 0 0 -0 -0 -0 -0 -0 -0 -0
0 0 0 0 -0 -0 -0 -0 -0 -0 -0 -0 -0 -0 -0 -0 -0 -0 -0 -0 -0 -0 -0 -0 -0 -0 -0 -0 -0 -0 -0 -0 -0 0 0 -0 -0 -0 -0 -0 -0 -0 -0
0 0 0 0 -0 -0 -0 -0 -0 -0 -0 -0 -0 -0 -0 -0 -0 -0 -0 -0 -0 -0 -0 -0 -0 -0 -0 -0 -0 -0 -0 -0 0 0 0 0 0 -0 -0 -0 -0 -0 -0
0 0 0 -0 -0 -0 -0 -0 -0 -0 -0 -0 -0 -0 -0 -0 -0 -0 -0 -0 -0 -0 -0 -0 -0 -0 -0 -0 -0 -0 -0 0 0 0 0 0 -0 -0 -0 -0 -0 -0 -0
0 -0 0 0 -0 -0 -0 -0 -0 -0 -0 -0 -0 -0 -0 -0 -0 -0 -0 -0 -0 -0 -0 -0 -0 -0 -0 -0 -0 -0 -0 -0 0 0 0 0 -0 -0 -0 -0 -0 -0 0
0 0 0 0 -0 -0 -0 -0 -0 -0 -0 -0 -0 -0 -0 -0 -0 -0 -0 -0 -0 -0 -0 -0 -0 -0 -0 -0 -0 -0 -0 -0 0 0 0 0 -0 -0 0 0 0 0 0
0 -0 -0 -0 -0 -0 -0 -0 -0 -0 -0 -0 -0 -0 0 0 0 0 0 -0 -0 -0 -0 -0 -0 -0 -0 -0 -0 -0 0 0 0 0 0 0 0 -0 0 0 0 0 0
-0 -0 -0 -0 -0 -0 -0 -0 0 0 0 0 0 0 0 0 0 0 0 0 -0 -0 -0 -0 -0 -0 0 0 0 0 0 0 0 0 0 0 0 0 0 0 0 0 0
-0 -0 -0 -0 -0 -0 -0 0 0 0 0 0 0 0 0 0 0 0 0 0 0 0 0 0 0 0 0 0 0 0 0 0 0 0 0 0 0 0 0 0 0 0 0
-0 -0 -0 -0 -0 -0 -0 -0 0 0 0 0 0 0 0 0 0 0 0 0 0 0 0 0 0 0 0 0 0 0 0 0 0 0 0 0 0 0 0 0 0 0 0
-0 -0 -0 -0 -0 -0 -0 -0 -0 0 0 0 0 0 0 0 0 0 0 0 0 0 0 0 0 0 0 0 0 0 0 0 0 0 0 0 0 0 0 0 0 0 0
-0 -0 -0 -0 -0 -0 -0 -0 0 0 0 0 0 0 0 0 0 0 0 0 0 0 0 0 0 0 0 0 0 0 0 0 0 0 0 0 0 0 0 0 0 0 0
-0 -0 -0 -0 -0 -0 -0 -0 -0 0 0 0 0 0 0 0 0 0 0 0 0 0 0 0 0 0 0 0 0 0 0 0 0 0 0 0 0 0 0 0 0 0 0
0 0 -0 0 -0 -0 -0 -0 0 0 0 0 0 0 0 0 0 0 0 0 0 0 0 0 0 0 0 0 0 0 0 0 0 0 0 0 0 0 0 0 0 0 0
0 0 0 0 -0 -0 0 0 0 0 0 0 0 0 0 0 0 0 0 0 0 0 0 0 0 0 0 0 0 0 0 0 0 0 0 0 0 0 0 0 0 0 0
0 0 0 0 0 0 0 0 0 0 0 0 0 0 0 0 0 0 0 0 0 0 0 0 0 0 0 0 0 0 0 0 0 0 0 0 0 0 0 0 0 0 0
0 0 0 0 0 0 0 0 0 0 0 0 0 0 0 0 0 0 0 0 0 0 0 0 0 0 0 0 0 0 0 0 0 0 0 0 0 0 0 0 0 0 0
0 0 0 0 0 0 0 0 0 0 0 0 0 0 0 0 0 0 0 0 0 0 0 0 0 0 0 0 0 0 0 0 0 0 0 0 0 0 0 0 0 0 0
0 0 0 0 0 0 0 0 0 0 0 0 0 0 0 0 0 0 0 0 0 0 0 0 0 0 0 0 0 0 0 0 0 0 0 0 0 0 0 0 0 0 0
0 0 0 0 0 0 0 0 0 0 0 0 0 0 0 0 0 0 0 0 0 0 0 0 0 0 0 0 0 0 0 0 0 0 0 0 0 0 0 0 0 0 0
0 0 0 0 0 0 0 0 0 0 0 0 0 0 0 0 0 0 0 0 0 0 0 0 0 0 0 0 0 0 0 0 0 0 0 0 0 0 0 0 0 0 0
0 0 0 0 0 0 0 0 0 0 0 0 0 0 0 0 0 0 0 0 0 0 0 0 0 0 0 0 0 0 0 0 0 0 0 0 0 0 0 0 0 0 0
Wind_Speed_500mb
40 38 35 32 22 18 24 21 21 15 19 22 21 21 22 23 21 21 22 23 22 27 28 24 23 24 25 23 21 22 22 23 23 24 31 39 45 43 40 39 38 41 41
45 44 36 25 23 21 20 12 15 18 21 23 23 23 25 25 18 19 21 21 24 26 27 26 26 26 26 27 26 25 22 19 16 19 27 36 36 35 33 29 30 32 32
44 43 35 28 24 20 20 18 19 18 24 25 25 26 31 24 15 14 22 23 23 25 26 27 28 28 30 31 30 29 26 24 23 21 22 31 29 26 30 31 29 28 27
45 43 36 28 24 20 20 21 22 23 24 22 25 27 31 23 14 11 18 21 22 25 28 30 30 28 28 30 31 30 29 28 27 28 31 31 31 32 32 30 34 33 36
47 40 34 28 24 21 18 20 22 22 23 21 23 24 29 21 16 11 18 22 22 24 24 25 26 26 25 27 29 30 32 32 32 35 43 41 37 38 40 40 41 41 40
44 37 33 30 25 19 16 17 18 19 20 21 22 24 29 22 13 9 16 18 21 23 24 27 26 25 25 28 29 30 31 30 39 40 38 34 35 33 37 37 30 32 34
42 35 31 29 25 21 17 15 15 16 18 18 18 20 20 16 10 7 11 16 18 21 21 23 27 28 26 25 27 27 29 37 37 35 33 30 29 26 28 28 30 31 27
38 37 34 32 27 23 20 17 15 15 15 15 15 15 14 10 8 7 10 14 16 17 16 21 24 19 19 21 20 27 35 33 32 31 26 23 21 19 18 21 24 23 25
38 39 38 35 32 27 22 18 15 13 12 11 12 12 11 9 8 8 10 13 15 16 15 17 15 13 15 17 16 23 31 32 23 21 21 19 11 12 15 19 21 21 27
36 38 41 38 35 32 27 21 17 14 12 11 11 10 9 9 9 9 11 13 15 15 16 13 11 12 13 14 13 14 13 12 16 15 11 8 7 2 16 22 23 25 25
35 36 41 40 39 36 32 28 24 20 17 15 13 11 9 9 9 10 11 12 14 14 15 12 10 10 10 11 12 11 12 13 11 10 10 8 8 6 20 23 24 27 28
45 43 41 41 43 42 38 34 30 27 24 21 17 14 13 12 12 12 13 13 13 13 12 12 10 8 7 6 5 9 13 16 19 15 13 8 1 5 15 25 24 25 26
52 50 49 46 40 44 43 40 38 34 30 27 24 21 20 18 15 15 14 14 14 11 10 10 8 6 4 1 1 11 17 18 17 21 16 10 13 5 18 23 25 25 26
57 55 49 42 44 45 46 47 43 40 36 33 30 29 27 22 16 18 15 12 12 9 9 9 7 5 3 1 4 11 15 20 20 19 16 12 13 4 19 22 22 25 24
62 62 59 55 49 48 48 49 47 41 39 37 37 35 32 29 22 20 19 17 15 10 8 7 7 1 1 2 5 11 16 24 21 21 20 20 15 7 18 16 18 21 21
65 65 65 64 60 51 49 51 49 48 46 43 44 41 38 35 32 27 24 23 23 19 11 11 5 6 5 8 8 9 13 16 24 25 27 28 26 15 20 17 13 20 21
64 66 69 71 68 63 55 50 48 54 50 49 47 46 45 43 42 38 33 32 30 19 21 17 16 19 18 15 17 19 19 20 26 31 34 31 35 35 25 24 17 19 21
67 70 70 73 74 70 65 59 57 54 57 57 54 54 52 50 48 47 47 42 33 30 32 29 26 28 29 26 26 26 28 29 28 33 37 36 41 34 24 24 20 20 21
66 68 70 73 75 73 71 67 65 63 61 63 61 61 61 58 56 54 50 52 51 51 47 43 41 40 38 36 34 35 37 35 36 38 42 44 47 45 40 33 28 25 22
64 68 71 71 73 74 74 71 74 74 69 65 69 68 66 67 59 61 57 57 60 61 55 53 52 49 46 43 42 41 44 44 47 48 49 51 51 51 50 46 42 36 33
65 71 71 75 75 76 84 84 84 86 84 78 74 71 71 69 69 64 61 61 65 71 64 65 64 57 55 52 49 48 53 52 57 56 58 59 57 59 59 58 53 46 43
59 63 72 75 74 75 79 81 87 84 87 80 76 73 73 73 69 74 69 68 69 73 76 71 73 68 69 65 63 56 49 64 65 67 66 66 64 65 67 67 62 57 53
62 64 65 69 75 75 77 84 90 95 95 91 87 81 82 74 77 76 76 73 73 71 75 81 76 78 81 80 75 67 27 38 48 68 73 74 75 75 75 76 73 67 62
44 54 57 62 71 76 80 85 85 88 93 91 92 86 85 77 76 85 74 79 80 77 78 75 81 80 84 99 81 88 89 70 30 29 53 61 73 81 82 83 81 77 74
26 35 48 52 56 69 80 82 80 82 87 92 87 84 84 84 79 77 80 79 84 82 82 78 82 88 90 92 88 101 94 97 85 75 58 59 67 70 77 85 88 84 82
10 19 26 35 43 51 64 75 78 75 78 82 84 82 77 74 70 78 81 82 86 86 89 87 83 88 91 104 89 92 109 103 97 98 89 93 89 75 80 84 90 87 91
Wind_Direction_500mb
163 157 145 139 130 115 92 73 79 96 115 120 122 118 105 101 95 79 70 65 79 91 99 103 94 93 100 99 107 115 122 120 114 102 96 91 92 93 90 94 94 95 96
155 153 149 147 137 125 124 104 89 94 113 128 122 117 108 108 99 80 64 72 89 96 98 97 96 95 96 93 96 100 106 109 106 107 105 104 101 96 96 94 94 92 93
167 163 156 152 140 133 117 119 115 113 112 121 121 121 116 115 104 93 79 83 96 100 101 101 98 95 93 91 91 93 93 94 96 104 115 108 102 99 97 96 94 92 89
166 162 166 159 150 132 138 124 111 107 109 115 121 128 126 123 119 87 79 95 102 104 104 97 98 94 87 84 84 87 92 97 101 106 104 101 98 91 89 88 84 84 84
168 166 167 163 155 153 134 119 115 109 111 116 125 126 131 136 136 103 90 106 112 115 111 106 109 99 91 89 88 91 97 103 101 96 90 90 92 93 98 95 95 97 100
169 170 172 169 168 156 140 124 121 120 119 119 123 127 134 148 157 120 101 114 123 127 112 112 115 103 96 94 98 98 100 100 98 93 97 97 94 99 103 103 103 106 109
176 177 179 180 178 167 156 147 142 131 122 116 116 127 143 153 145 136 110 124 133 138 139 133 116 107 101 103 106 105 94 101 104 103 100 101 106 110 110 111 110 106 116
189 186 187 189 188 181 177 170 157 143 130 120 118 120 138 143 146 158 126 132 139 148 152 142 141 121 110 111 107 105 110 117 114 108 113 113 121 117 114 115 113 117 113
200 199 194 194 193 192 191 181 170 158 145 134 126 125 133 138 142 152 138 143 154 164 160 159 150 132 115 121 104 115 126 127 128 134 131 130 128 129 119 117 115 113 107
197 207 203 200 200 200 201 196 185 177 170 162 151 142 136 143 150 154 153 155 163 174 169 168 157 139 122 120 119 123 147 153 152 149 152 159 199 198 111 115 118 116 111
200 206 207 209 208 209 208 205 200 194 193 192 184 172 163 161 162 164 162 165 173 169 181 174 166 148 139 141 154 182 197 203 200 166 164 190 136 59 133 123 118 111 108
202 201 211 213 216 213 212 213 211 207 207 206 203 196 185 177 176 176 169 169 173 177 178 173 168 157 144 144 146 164 169 165 151 168 162 185 245 18 115 106 107 107 104
203 203 209 218 217 219 219 219 219 217 215 212 209 207 200 193 193 187 179 177 178 177 176 171 165 160 161 170 184 173 185 186 182 177 175 220 295 48 124 127 122 113 113
209 214 220 222 221 224 225 228 229 224 222 221 220 215 213 207 203 196 193 196 188 174 173 173 174 181 189 210 187 189 188 178 185 199 209 232 284 293 136 131 127 123 119
217 218 221 226 223 227 231 230 233 234 234 232 228 225 220 217 213 204 203 203 198 190 184 170 163 178 287 264 209 202 193 185 207 220 235 252 265 246 141 143 140 131 129
223 224 224 226 230 232 233 233 227 230 233 238 236 234 229 223 221 219 213 207 207 203 203 212 231 256 273 275 259 232 239 230 210 229 243 248 245 214 161 158 167 138 138
229 227 226 227 230 233 237 236 229 226 233 238 239 239 236 231 226 226 224 218 216 232 226 230 262 258 250 270 251 230 220 238 254 242 236 230 244 255 179 169 165 159 158
231 231 230 230 231 234 237 237 236 230 231 234 237 242 241 237 233 231 229 232 240 240 231 242 255 265 261 254 246 234 231 229 234 253 255 243 247 243 224 200 192 187 183
239 237 234 232 233 233 234 238 239 239 239 236 239 239 240 240 236 235 238 237 237 235 230 231 233 241 248 248 246 237 235 235 240 241 245 248 250 246 249 258 263 248 209
243 241 239 237 237 235 235 237 237 240 245 245 242 245 244 240 243 236 240 242 242 240 241 242 241 245 239 240 238 239 240 244 238 241 244 248 249 250 251 255 261 257 248
245 241 239 237 236 235 233 233 234 235 239 243 247 247 246 246 247 246 242 244 247 246 248 246 243 242 241 237 238 238 239 241 247 246 247 249 248 250 251 253 257 256 250
249 246 241 238 237 237 238 239 238 241 242 246 249 248 250 247 248 247 250 247 248 250 249 247 249 247 247 240 236 236 237 242 247 248 249 247 249 248 250 250 251 252 250
246 245 247 246 241 239 239 240 240 240 242 242 243 246 243 251 249 248 246 253 248 253 257 253 258 249 252 246 245 237 225 234 244 247 249 249 247 247 250 251 249 248 247
250 250 251 249 247 244 241 240 243 245 245 249 249 249 248 250 254 249 251 251 254 253 252 257 261 253 253 249 241 241 244 244 237 249 252 252 255 251 252 250 248 246 245
246 248 245 248 250 246 243 244 245 247 250 251 254 255 251 255 256 255 258 258 256 257 255 256 259 252 252 262 254 253 241 242 247 253 257 263 257 255 257 254 251 247 248
237 245 246 246 250 249 244 243 245 249 254 255 255 255 257 258 256 257 255 255 259 258 260 262 260 264 254 261 263 265 250 249 246 252 258 261 261 264 269 258 254 251 246
Wind_Speed_850mb
40 38 35 32 22 18 24 21 21 15 19 22 21 21 22 23 21 21 22 23 22 27 28 24 23 24 25 23 21 22 22 23 23 24 31 39 45 43 40 39 38 41 41
45 44 36 25 23 21 20 12 15 18 21 23 23 23 25 25 18 19 21 21 24 26 27 26 26 26 26 27 26 25 22 19 16 19 27 36 36 35 33 29 30 32 32
44 43 35 28 24 20 20 18 19 18 24 25 25 26 31 24 15 14 22 23 23 25 26 27 28 28 30 31 30 29 26 24 23 21 22 31 29 26 30 31 29 28 27
45 43 36 28 24 20 20 21 22 23 24 22 25 27 31 23 14 11 18 21 22 25 28 30 30 28 28 30 31 30 29 28 27 28 31 31 31 32 32 30 34 33 36
47 40 34 28 24 21 18 20 22 22 23 21 23 24 29 21 16 11 18 22 22 24 24 25 26 26 25 27 29 30 32 32 32 35 43 41 37 38 40 40 41 41 40
44 37 33 30 25 19 16 17 18 19 20 21 22 24 29 22 13 9 16 18 21 23 24 27 26 25 25 28 29 30 31 30 39 40 38 34 35 33 37 37 30 32 34
42 35 31 29 25 21 17 15 15 16 18 18 18 20 20 16 10 7 11 16 18 21 21 23 27 28 26 25 27 27 29 37 37 35 33 30 29 26 28 28 30 31 27
38 37 34 32 27 23 20 17 15 15 15 15 15 15 14 10 8 7 10 14 16 17 16 21 24 19 19 21 20 27 35 33 32 31 26 23 21 19 18 21 24 23 25
38 39 38 35 32 27 22 18 15 13 12 11 12 12 11 9 8 8 10 13 15 16 15 17 15 13 15 17 16 23 31 32 23 21 21 19 11 12 15 19 21 21 27
36 38 41 38 35 32 27 21 17 14 12 11 11 10 9 9 9 9 11 13 15 15 16 13 11 12 13 14 13 14 13 12 16 15 11 8 7 2 16 22 23 25 25
35 36 41 40 39 36 32 28 24 20 17 15 13 11 9 9 9 10 11 12 14 14 15 12 10 10 10 11 12 11 12 13 11 10 10 8 8 6 20 23 24 27 28
45 43 41 41 43 42 38 34 30 27 24 21 17 14 13 12 12 12 13 13 13 13 12 12 10 8 7 6 5 9 13 16 19 15 13 8 1 5 15 25 24 25 26
52 50 49 46 40 44 43 40 38 34 30 27 24 21 20 18 15 15 14 14 14 11 10 10 8 6 4 1 1 11 17 18 17 21 16 10 13 5 18 23 25 25 26
57 55 49 42 44 45 46 47 43 40 36 33 30 29 27 22 16 18 15 12 12 9 9 9 7 5 3 1 4 11 15 20 20 19 16 12 13 4 19 22 22 25 24
62 62 59 55 49 48 48 49 47 41 39 37 37 35 32 29 22 20 19 17 15 10 8 7 7 1 1 2 5 11 16 24 21 21 20 20 15 7 18 16 18 21 21
65 65 65 64 60 51 49 51 49 48 46 43 44 41 38 35 32 27 24 23 23 19 11 11 5 6 5 8 8 9 13 16 24 25 27 28 26 15 20 17 13 20 21
64 66 69 71 68 63 55 50 48 54 50 49 47 46 45 43 42 38 33 32 30 19 21 17 16 19 18 15 17 19 19 20 26 31 34 31 35 35 25 24 17 19 21
67 70 70 73 74 70 65 59 57 54 57 57 54 54 52 50 48 47 47 42 33 30 32 29 26 28 29 26 26 26 28 29 28 33 37 36 41 34 24 24 20 20 21
66 68 70 73 75 73 71 67 65 63 61 63 61 61 61 58 56 54 50 52 51 51 47 43 41 40 38 36 34 35 37 35 36 38 42 44 47 45 40 33 28 25 22
64 68 71 71 73 74 74 71 74 74 69 65 69 68 66 67 59 61 57 57 60 61 55 53 52 49 46 43 42 41 44 44 47 48 49 51 51 51 50 46 42 36 33
65 71 71 75 75 76 84 84 84 86 84 78 74 71 71 69 69 64 61 61 65 71 64 65 64 57 55 52 49 48 53 52 57 56 58 59 57 59 59 58 53 46 43
59 63 72 75 74 75 79 81 87 84 87 80 76 73 73 73 69 74 69 68 69 73 76 71 73 68 69 65 63 56 49 64 65 67 66 66 64 65 67 67 62 57 53
62 64 65 69 75 75 77 84 90 95 95 91 87 81 82 74 77 76 76 73 73 71 75 81 76 78 81 80 75 67 27 38 48 68 73 74 75 75 75 76 73 67 62
44 54 57 62 71 76 80 85 85 88 93 91 92 86 85 77 76 85 74 79 80 77 78 75 81 80 84 99 81 88 89 70 30 29 53 61 73 81 82 83 81 77 74
26 35 48 52 56 69 80 82 80 82 87 92 87 84 84 84 79 77 80 79 84 82 82 78 82 88 90 92 88 101 94 97 85 75 58 59 67 70 77 85 88 84 82
10 19 26 35 43 51 64 75 78 75 78 82 84 82 77 74 70 78 81 82 86 86 89 87 83 88 91 104 89 92 109 103 97 98 89 93 89 75 80 84 90 87 91
Wind_Direction_850mb
163 157 145 139 130 115 92 73 79 96 115 120 122 118 105 101 95 79 70 65 79 91 99 103 94 93 100 99 107 115 122 120 114 102 96 91 92 93 90 94 94 95 96
155 153 149 147 137 125 124 104 89 94 113 128 122 117 108 108 99 80 64 72 89 96 98 97 96 95 96 93 96 100 106 109 106 107 105 104 101 96 96 94 94 92 93
167 163 156 152 140 133 117 119 115 113 112 121 121 121 116 115 104 93 79 83 96 100 101 101 98 95 93 91 91 93 93 94 96 104 115 108 102 99 97 96 94 92 89
166 162 166 159 150 132 138 124 111 107 109 115 121 128 126 123 119 87 79 95 102 104 104 97 98 94 87 84 84 87 92 97 101 106 104 101 98 91 89 88 84 84 84
168 166 167 163 155 153 134 119 115 109 111 116 125 126 131 136 136 103 90 106 112 115 111 106 109 99 91 89 88 91 97 103 101 96 90 90 92 93 98 95 95 97 100
169 170 172 169 168 156 140 124 121 120 119 119 123 127 134 148 157 120 101 114 123 127 112 112 115 103 96 94 98 98 100 100 98 93 97 97 94 99 103 103 103 106 109
176 177 179 180 178 167 156 147 142 131 122 116 116 127 143 153 145 136 110 124 133 138 139 133 116 107 101 103 106 105 94 101 104 103 100 101 106 110 110 111 110 106 116
189 186 187 189 188 181 177 170 157 143 130 120 118 120 138 143 146 158 126 132 139 148 152 142 141 121 110 111 107 105 110 117 114 108 113 113 121 117 114 115 113 117 113
200 199 194 194 193 192 191 181 170 158 145 134 126 125 133 138 142 152 138 143 154 164 160 159 150 132 115 121 104 115 126 127 128 134 131 130 128 129 119 117 115 113 107
197 207 203 200 200 200 201 196 185 177 170 162 151 142 136 143 150 154 153 155 163 174 169 168 157 139 122 120 119 123 147 153 152 149 152 159 199 198 111 115 118 116 111
200 206 207 209 208 209 208 205 200 194 193 192 184 172 163 161 162 164 162 165 173 169 181 174 166 148 139 141 154 182 197 203 200 166 164 190 136 59 133 123 118 111 108
202 201 211 213 216 213 212 213 211 207 207 206 203 196 185 177 176 176 169 169 173 177 178 173 168 157 144 144 146 164 169 165 151 168 162 185 245 18 115 106 107 107 104
203 203 209 218 217 219 219 219 219 217 215 212 209 207 200 193 193 187 179 177 178 177 176 171 165 160 161 170 184 173 185 186 182 177 175 220 295 48 124 127 122 113 113
209 214 220 222 221 224 225 228 229 224 222 221 220 215 213 207 203 196 193 196 188 174 173 173 174 181 189 210 187 189 188 178 185 199 209 232 284 293 136 131 127 123 119
217 218 221 226 223 227 231 230 233 234 234 232 228 225 220 217 213 204 203 203 198 190 184 170 163 178 287 264 209 202 193 185 207 220 235 252 265 246 141 143 140 131 129
223 224 224 226 230 232 233 233 227 230 233 238 236 234 229 223 221 219 213 207 207 203 203 212 231 256 273 275 259 232 239 230 210 229 243 248 245 214 161 158 167 138 138
229 227 226 227 230 233 237 236 229 226 233 238 239 239 236 231 226 226 224 218 216 232 226 230 262 258 250 270 251 230 220 238 254 242 236 230 244 255 179 169 165 159 158
231 231 230 230 231 234 237 237 236 230 231 234 237 242 241 237 233 231 229 232 240 240 231 242 255 265 261 254 246 234 231 229 234 253 255 243 247 243 224 200 192 187 183
239 237 234 232 233 233 234 238 239 239 239 236 239 239 240 240 236 235 238 237 237 235 230 231 233 241 248 248 246 237 235 235 240 241 245 248 250 246 249 258 263 248 209
243 241 239 237 237 235 235 237 237 240 245 245 242 245 244 240 243 236 240 242 242 240 241 242 241 245 239 240 238 239 240 244 238 241 244 248 249 250 251 255 261 257 248
245 241 239 237 236 235 233 233 234 235 239 243 247 247 246 246 247 246 242 244 247 246 248 246 243 242 241 237 238 238 239 241 247 246 247 249 248 250 251 253 257 256 250
249 246 241 238 237 237 238 239 238 241 242 246 249 248 250 247 248 247 250 247 248 250 249 247 249 247 247 240 236 236 237 242 247 248 249 247 249 248 250 250 251 252 250
246 245 247 246 241 239 239 240 240 240 242 242 243 246 243 251 249 248 246 253 248 253 257 253 258 249 252 246 245 237 225 234 244 247 249 249 247 247 250 251 249 248 247
250 250 251 249 247 244 241 240 243 245 245 249 249 249 248 250 254 249 251 251 254 253 252 257 261 253 253 249 241 241 244 244 237 249 252 252 255 251 252 250 248 246 245
246 248 245 248 250 246 243 244 245 247 250 251 254 255 251 255 256 255 258 258 256 257 255 256 259 252 252 262 254 253 241 242 247 253 257 263 257 255 257 254 251 247 248
237 245 246 246 250 249 244 243 245 249 254 255 255 255 257 258 256 257 255 255 259 258 260 262 260 264 254 261 263 265 250 249 246 252 258 261 261 264 269 258 254 251 246